Imperial, CA

12:30 AM PDT on March 26, 2017 (GMT -0700)
Imperial County

Weather History for KIPL - September, 2013

Change the Weather History Date:

Tuesday, September 3, 2013

  Actual Average Record
Temperature  
Mean Temperature 94 °F -  
Max Temperature 107 °F 104 °F 118 °F (1948)
Min Temperature 82 °F 76 °F 63 °F (1964)
Cooling Degree Days 29    
Growing Degree Days 44 (Base 50)    
Moisture  
Dew Point 64 °F    
Average Humidity 40    
Maximum Humidity 62    
Minimum Humidity 22    
Precipitation  
Precipitation 0.00 in - - ()
Sea Level Pressure  
Sea Level Pressure 29.76 in    
Wind  
Wind Speed 4 mph (WSW)    
Max Wind Speed 7 mph    
Max Gust Speed -    
Visibility 10 miles    
Events      
Averages and records for this station are not official NWS values.
T = Trace of Precipitation, MM = Missing Value Source: NWS Daily Summary

Daily Weather History Graph

Daily Weather History Graph

Search for Another Location

Airport or City:

Trip Planner

Search our weather history database for the weather conditions in past years. The results will help you decide how hot, cold, wet, or windy it might be!

Date:

Astronomy

Sep. 03, 2013 Rise Set
Actual Time 6:18 AM PDT 7:04 PM PDT
Civil Twilight 5:53 AM PDT 7:29 PM PDT
Nautical Twilight 5:23 AM PDT 7:58 PM PDT
Astronomical Twilight 4:53 AM PDT 8:28 PM PDT
Moon 4:39 AM PDT (9/3) 5:52 PM PDT (9/3)
Length of Visible Light 13h 35m
Length of Day
12h 45m
Waning Crescent, 3% of the Moon is Illuminated
Sep 3
Waning Crescent
Sep 5
New
Sep 12
First Quarter
Sep 19
Full
Sep 26
Last Quarter

Hourly Weather History & Observations

Time (PDT) Temp. Heat Index Dew Point Humidity Pressure Visibility Wind Dir Wind Speed Gust Speed Precip Events Conditions
12:53 AM 84.9 °F 87.6 °F 66.9 °F 55% 29.75 in 10.0 mi SW 6.9 mph - N/A   Clear
1:53 AM 82.0 °F 84.9 °F 68.0 °F 62% 29.75 in 10.0 mi WSW 6.9 mph - N/A   Clear
2:53 AM 84.9 °F 87.1 °F 66.0 °F 53% 29.75 in 10.0 mi West 4.6 mph - N/A   Clear
3:53 AM 84.9 °F 86.6 °F 64.9 °F 51% 29.76 in 10.0 mi NE 4.6 mph - N/A   Clear
4:53 AM 84.0 °F 85.8 °F 64.9 °F 53% 29.76 in 10.0 mi Calm Calm - N/A   Clear
5:53 AM 82.0 °F 84.5 °F 66.9 °F 60% 29.77 in 10.0 mi Calm Calm - N/A   Clear
6:53 AM 82.0 °F 84.5 °F 66.9 °F 60% 29.80 in 10.0 mi South 3.5 mph - N/A   Clear
7:53 AM 87.1 °F 89.2 °F 66.0 °F 49% 29.81 in 10.0 mi SSW 4.6 mph - N/A   Clear
8:53 AM 89.1 °F 92.1 °F 66.9 °F 48% 29.82 in 10.0 mi SW 4.6 mph - N/A   Clear
9:53 AM 93.9 °F 95.6 °F 64.0 °F 37% 29.83 in 10.0 mi Calm Calm - N/A   Clear
10:53 AM 98.1 °F 99.6 °F 63.0 °F 31% 29.83 in 10.0 mi Calm Calm - N/A   Clear
11:53 AM 100.0 °F 101.8 °F 63.0 °F 29% 29.82 in 10.0 mi Calm Calm - N/A   Clear
12:53 PM 104.0 °F 105.3 °F 61.0 °F 24% 29.79 in 10.0 mi East 3.5 mph - N/A   Clear
1:53 PM 105.1 °F 106.4 °F 60.1 °F 23% 29.76 in 10.0 mi Variable 3.5 mph - N/A   Clear
2:53 PM 105.1 °F 107.8 °F 62.1 °F 25% 29.73 in 10.0 mi NNW 3.5 mph - N/A   Clear
3:53 PM 106.0 °F 107.1 °F 60.1 °F 22% 29.71 in 10.0 mi WSW 5.8 mph - N/A   Clear
4:53 PM 104.0 °F 105.3 °F 61.0 °F 24% 29.71 in 10.0 mi SW 6.9 mph - N/A   Clear
5:53 PM 100.9 °F 103.3 °F 63.0 °F 29% 29.70 in 10.0 mi West 6.9 mph - N/A   Clear
6:53 PM 99.0 °F 101.7 °F 64.0 °F 32% 29.70 in 10.0 mi WSW 4.6 mph - N/A   Clear
7:53 PM 98.1 °F 99.6 °F 63.0 °F 31% 29.71 in 10.0 mi SW 3.5 mph - N/A   Clear
8:53 PM 95.0 °F 97.0 °F 64.0 °F 36% 29.73 in 10.0 mi SW 5.8 mph - N/A   Clear
9:53 PM 93.9 °F 95.2 °F 63.0 °F 36% 29.75 in 10.0 mi NW 3.5 mph - N/A   Clear
10:53 PM 93.0 °F 94.2 °F 63.0 °F 37% 29.77 in 10.0 mi Calm Calm - N/A   Clear
11:53 PM 89.1 °F 90.3 °F 64.0 °F 43% 29.77 in 10.0 mi Calm Calm - N/A   Clear